�N����,����,����,����,����,�C��,���x,�~����,�S�V����,�ő�u�ԕ���,,,,,
,,,,,,,,,����,����,����,�N��,,
yyyy/mm/dd,hh:mm:ss,(16),16����,m/s,��,%,mm,KW/�u,(16),16����,m/s,Time,,
2018/5/1,1:00:00,16,�É�,0.2,9.7,82,0,0,13,���k��,2.8,25,,
2018/5/1,2:00:00,3,���k��,3.4,9.4,81.2,0,0,2,�k��,7.3,58,,
2018/5/1,3:00:00,2,�k��,3.1,9,82.4,0,0,2,�k��,6.3,6,,
2018/5/1,4:00:00,2,�k��,3.3,8.6,84,0,0,3,���k��,7,34,,
2018/5/1,5:00:00,2,�k��,1.6,8.6,83.4,0,0.01,2,�k��,5.2,20,,
2018/5/1,6:00:00,3,���k��,2.3,9.5,78.8,0,0.11,2,�k��,4.5,26,,
2018/5/1,7:00:00,16,�k,1.3,12.1,66.1,0,0.28,2,�k��,3.9,4,,
2018/5/1,8:00:00,3,���k��,2.5,14.4,55.9,0,0.45,3,���k��,5.7,56,,
2018/5/1,9:00:00,4,��,4.3,14.6,57.7,0,0.64,3,���k��,8.1,22,,
2018/5/1,10:00:00,5,���쓌,4.9,12.9,62,0,0.86,5,���쓌,6.1,53,,
2018/5/1,11:00:00,5,���쓌,3.9,11.5,64.8,0,0.96,5,���쓌,6.5,19,,
2018/5/1,12:00:00,4,��,3.4,13.3,64.5,0,0.99,4,��,5.5,47,,
2018/5/1,13:00:00,5,���쓌,3.6,11.4,60.2,0,0.94,5,���쓌,5.2,17,,
2018/5/1,14:00:00,7,��쓌,3.3,12.4,61.6,0,0.77,7,��쓌,4.8,56,,
2018/5/1,15:00:00,7,��쓌,3,11.5,63.3,0,0.58,7,��쓌,5.3,8,,
2018/5/1,16:00:00,6,�쓌,2.7,10.8,67.6,0,0.22,7,��쓌,4.4,40,,
2018/5/1,17:00:00,5,���쓌,1.5,10.8,67.4,0,0.12,5,���쓌,3.6,1,,
2018/5/1,18:00:00,4,��,1.5,10.3,71.5,0,0.03,4,��,2.5,54,,
2018/5/1,19:00:00,4,��,0.4,9.9,73.8,0,0,3,���k��,2.5,1,,
2018/5/1,20:00:00,6,�쓌,1.8,8.8,77.1,0,0,6,�쓌,3.7,36,,
2018/5/1,21:00:00,12,��,1.2,8,79.8,0,0,6,�쓌,2.4,0,,
2018/5/1,22:00:00,7,��쓌,1.1,5,80.6,0,0,7,��쓌,2,41,,
2018/5/1,23:00:00,7,��쓌,1.1,6.2,88.7,0,0,8,��,3.1,45,,
2018/5/1,0:00:00,7,��쓌,1.3,5.8,86.1,0,0,5,���쓌,2.5,47,,
2018/5/2,1:00:00,10,�쐼,0.6,3.7,86,0,0,7,��쓌,2.7,15,,
2018/5/2,2:00:00,12,��,0.8,5.6,90.6,0,0,10,�쐼,3.9,28,,
2018/5/2,3:00:00,16,�k,1,4.8,88.7,0,0,15,�k�k��,1.7,40,,
2018/5/2,4:00:00,13,���k��,1.8,3.9,90.7,0,0,14,�k��,2.9,46,,
2018/5/2,5:00:00,14,�k��,1.8,5,92.2,0,0.02,14,�k��,3,5,,
2018/5/2,6:00:00,14,�k��,0.8,5.9,91.3,0,0.09,14,�k��,3,25,,
2018/5/2,7:00:00,2,�k��,1.3,7.9,73,0,0.17,3,���k��,2.5,45,,
2018/5/2,8:00:00,3,���k��,0.8,8.9,67.7,0,0.23,2,�k��,2.4,26,,
2018/5/2,9:00:00,2,�k��,2.3,11.1,58.6,0,0.48,3,���k��,4.6,38,,
2018/5/2,10:00:00,4,��,5.5,10.4,58.8,0,0.66,4,��,7.1,58,,
2018/5/2,11:00:00,4,��,5,10.8,62.1,0,0.76,2,�k��,7.9,4,,
2018/5/2,12:00:00,4,��,4.9,10.3,59.7,0,0.86,3,���k��,7.4,55,,
2018/5/2,13:00:00,3,���k��,3.7,10,62,0,0.62,3,���k��,6.1,27,,
2018/5/2,14:00:00,4,��,3.8,9.3,65.1,0,0.52,3,���k��,6.8,38,,
2018/5/2,15:00:00,4,��,3.3,8.8,68.2,0,0.44,5,���쓌,6.6,9,,
2018/5/2,16:00:00,4,��,2.5,8.5,71.2,0,0.23,3,���k��,5,21,,
2018/5/2,17:00:00,6,�쓌,2.2,7.3,74.1,0,0.08,3,���k��,3.9,6,,
2018/5/2,18:00:00,4,��,2.5,5.7,87.5,0,0.01,4,��,3.8,16,,
2018/5/2,19:00:00,3,���k��,2.3,5.5,89.7,0,0,3,���k��,3.6,49,,
2018/5/2,20:00:00,3,���k��,2.4,5.4,90.8,0,0,2,�k��,3.6,27,,
2018/5/2,21:00:00,3,���k��,2,5,92.9,0,0,2,�k��,3.8,47,,
2018/5/2,22:00:00,4,��,2.5,4.6,93.2,0,0,4,��,4.5,2,,
2018/5/2,23:00:00,3,���k��,3.2,4.3,93.8,0,0,4,��,4.8,53,,
2018/5/2,0:00:00,3,���k��,2.6,3.9,95.2,1,0,2,�k��,5.3,21,,
2018/5/3,1:00:00,3,���k��,4.2,3.7,96.1,0,0,3,���k��,6.6,52,,
2018/5/3,2:00:00,3,���k��,3.8,3.7,96.6,1.5,0,3,���k��,7.2,18,,
2018/5/3,3:00:00,2,�k��,4.5,3.8,96.7,1.5,0,2,�k��,7.6,23,,
2018/5/3,4:00:00,3,���k��,5,3.9,95.4,2,0,3,���k��,8.4,53,,
2018/5/3,5:00:00,1,�k�k��,3,3.8,94.4,2.5,0,2,�k��,8.4,5,,
2018/5/3,6:00:00,1,�k�k��,2.2,3.7,94.1,3,0.02,2,�k��,5.9,6,,
2018/5/3,7:00:00,15,�k�k��,2.4,3.7,92.8,3,0.03,15,�k�k��,5.3,45,,
2018/5/3,8:00:00,15,�k�k��,2.4,3.8,93.5,5,0.04,14,�k��,5.3,46,,
2018/5/3,9:00:00,15,�k�k��,2.7,4.2,93.7,4.5,0.07,14,�k��,5.9,48,,
2018/5/3,10:00:00,14,�k��,3.8,4.6,93.2,3.5,0.11,14,�k��,6.2,50,,
2018/5/3,11:00:00,15,�k�k��,3.9,5.2,93.2,4.5,0.2,15,�k�k��,7.3,14,,
2018/5/3,12:00:00,15,�k�k��,3,5.6,91.5,2,0.2,14,�k��,6.4,25,,
2018/5/3,13:00:00,15,�k�k��,2.9,6.1,92.4,1.5,0.19,15,�k�k��,5.7,58,,
2018/5/3,14:00:00,14,�k��,4.8,6.5,93.1,2,0.2,14,�k��,8.2,52,,
2018/5/3,15:00:00,14,�k��,4.3,6.9,93.7,0.5,0.16,15,�k�k��,8.4,25,,
2018/5/3,16:00:00,14,�k��,4.4,7,95,3.5,0.05,13,���k��,8.2,17,,
2018/5/3,17:00:00,14,�k��,4.2,7.6,94.9,1.5,0.06,15,�k�k��,8.4,1,,
2018/5/3,18:00:00,13,���k��,3.3,7.6,93.5,0,0.02,14,�k��,6.9,1,,
2018/5/3,19:00:00,16,�k,2.1,7.6,94.2,2,0,16,�k,7.2,17,,
2018/5/3,20:00:00,15,�k�k��,2.1,7.9,93.9,0,0,15,�k�k��,5,20,,
2018/5/3,21:00:00,15,�k�k��,2.8,8.1,91.3,0,0,15,�k�k��,7.6,16,,
2018/5/3,22:00:00,1,�k�k��,3.6,7.2,91.5,1.5,0,1,�k�k��,5.4,47,,
2018/5/3,23:00:00,15,�k�k��,1.4,7.2,93.9,0.5,0,1,�k�k��,5,5,,
2018/5/3,0:00:00,1,�k�k��,1.3,7.2,94.3,0.5,0,10,�쐼,3.1,15,,
2018/5/4,1:00:00,11,���쐼,0.5,6.6,94.1,0,0,11,���쐼,3.7,46,,
2018/5/4,2:00:00,3,���k��,1.7,6.6,94.5,0,0,1,�k�k��,3,35,,
2018/5/4,3:00:00,15,�k�k��,0.6,6.6,94.9,0,0,2,�k��,3.3,5,,
2018/5/4,4:00:00,9,��쐼,1.8,6.6,95.2,0.5,0,10,�쐼,4,43,,
2018/5/4,5:00:00,8,��,2.5,6.2,95.2,0,0.01,8,��,4.1,55,,
2018/5/4,6:00:00,8,��,1.9,6.1,91,0,0.05,8,��,4.3,19,,
2018/5/4,7:00:00,9,��쐼,1.6,6.3,86.9,0,0.13,8,��,4.5,13,,
2018/5/4,8:00:00,8,��,2.3,7.2,80.8,0,0.31,9,��쐼,4.4,56,,
2018/5/4,9:00:00,5,���쓌,1.9,8,81.7,0,0.53,7,��쓌,5.7,21,,
2018/5/4,10:00:00,4,��,2.6,8.5,73.9,0,0.85,4,��,4.8,25,,
2018/5/4,11:00:00,3,���k��,3.3,9.1,80.5,0,0.7,5,���쓌,4.4,20,,
2018/5/4,12:00:00,5,���쓌,2.3,9.4,75,0,0.52,6,�쓌,5.5,41,,
2018/5/4,13:00:00,9,��쐼,5.6,12.3,67.4,0,0.5,8,��,10.2,59,,
2018/5/4,14:00:00,7,��쓌,3.1,10.1,75.5,0,0.37,8,��,10.2,4,,
2018/5/4,15:00:00,10,�쐼,3.9,12.8,63.9,0,0.25,9,��쐼,6.4,42,,
2018/5/4,16:00:00,8,��,2.9,12.1,64.6,0,0.26,10,�쐼,7.3,21,,
2018/5/4,17:00:00,11,���쐼,2,11.9,66.8,0,0.15,8,��,5.9,13,,
2018/5/4,18:00:00,10,�쐼,2.3,11.7,48.6,0,0.11,11,���쐼,3.9,56,,
2018/5/4,19:00:00,12,��,4.3,9.9,51,0,0.02,13,���k��,6.3,55,,
2018/5/4,20:00:00,11,���쐼,1.5,8.7,56.2,0,0,12,��,6.7,2,,
2018/5/4,21:00:00,8,��,0.6,4.9,69.4,0,0,9,��쐼,2.1,19,,
2018/5/4,22:00:00,10,�쐼,2.5,7.5,63.1,0,0,10,�쐼,5,37,,
2018/5/4,23:00:00,9,��쐼,1.8,8.9,63,0,0,8,��,3.7,48,,
2018/5/4,0:00:00,7,��쓌,3.1,8.8,71,0,0,8,��,5.4,54,,
2018/5/5,1:00:00,8,��,0.4,7.8,72.3,0,0,9,��쐼,5.5,7,,
2018/5/5,2:00:00,10,�쐼,1.7,4.7,75.2,0,0,13,���k��,4.1,15,,
2018/5/5,3:00:00,2,�k��,1.3,3.3,84.1,0,0,11,���쐼,2.3,30,,
2018/5/5,4:00:00,9,��쐼,2.8,7.9,93.3,0,0,9,��쐼,4.9,56,,
2018/5/5,5:00:00,7,��쓌,3.3,7.5,78.8,0,0.02,7,��쓌,5.9,50,,
2018/5/5,6:00:00,8,��,4.1,9.1,72,0,0.18,7,��쓌,7.1,10,,
2018/5/5,7:00:00,10,�쐼,4.3,11.9,54.3,0,0.48,10,�쐼,9.1,10,,
2018/5/5,8:00:00,11,���쐼,5.4,11.7,47.9,0,0.67,10,�쐼,9.7,25,,
2018/5/5,9:00:00,11,���쐼,4.5,10.8,62.8,0,0.56,11,���쐼,10.6,45,,
2018/5/5,10:00:00,10,�쐼,2.9,11.3,52.5,0,0.54,13,���k��,6.1,3,,
2018/5/5,11:00:00,9,��쐼,5.3,12,53.6,0,0.76,9,��쐼,10.9,50,,
2018/5/5,12:00:00,10,�쐼,7.4,12.8,52.4,0,1.06,10,�쐼,11.5,53,,
2018/5/5,13:00:00,7,��쓌,4.8,11.6,59.6,0,0.83,10,�쐼,11.3,25,,
2018/5/5,14:00:00,10,�쐼,5.2,11,57.5,0,0.72,9,��쐼,9.2,25,,
2018/5/5,15:00:00,11,���쐼,5.5,11.9,56.8,0,0.6,10,�쐼,10.7,34,,
2018/5/5,16:00:00,11,���쐼,6.5,12.2,49.2,0,0.52,11,���쐼,9.9,52,,
2018/5/5,17:00:00,12,��,5.3,11.5,47.9,0,0.35,11,���쐼,9.7,41,,
2018/5/5,18:00:00,11,���쐼,5.1,10.7,50.9,0,0.12,11,���쐼,8,51,,
2018/5/5,19:00:00,12,��,3.2,9.8,58.2,0,0.01,10,�쐼,7,4,,
2018/5/5,20:00:00,12,��,2.3,8.8,61.5,0,0,12,��,7,38,,
2018/5/5,21:00:00,14,�k��,1.5,8.2,65.8,0,0,14,�k��,3.3,34,,
2018/5/5,22:00:00,10,�쐼,1.4,4.3,70.8,0,0,11,���쐼,2.4,57,,
2018/5/5,23:00:00,13,���k��,1.8,2.4,77.9,0,0,13,���k��,2.4,55,,
2018/5/5,0:00:00,3,���k��,0.3,4.6,88.3,0,0,14,�k��,2.3,37,,
2018/5/6,1:00:00,11,���쐼,1.4,3.6,86.1,0,0,13,���k��,2.9,13,,
2018/5/6,2:00:00,10,�쐼,1,0.4,84.3,0,0,12,��,2,43,,
2018/5/6,3:00:00,13,���k��,2.1,2.3,91.5,0,0,12,��,2.6,52,,
2018/5/6,4:00:00,14,�k��,1.8,2.8,93.2,0,0,14,�k��,2.5,52,,
2018/5/6,5:00:00,12,��,1.9,3,92.3,0,0.02,12,��,3.1,59,,
2018/5/6,6:00:00,14,�k��,1.1,5.6,92.2,0,0.11,12,��,3.1,35,,
2018/5/6,7:00:00,12,��,0.9,8.6,72.1,0,0.3,13,���k��,2.3,18,,
2018/5/6,8:00:00,9,��쐼,2,10.4,55.6,0,0.43,7,��쓌,3.6,51,,
2018/5/6,9:00:00,6,�쓌,2.8,9.3,59.4,0,0.5,6,�쓌,4.5,50,,
2018/5/6,10:00:00,7,��쓌,3.3,8.6,65.1,0,0.4,8,��,5.9,59,,
2018/5/6,11:00:00,7,��쓌,1.5,8.4,64.7,0,0.29,8,��,5.8,1,,
2018/5/6,12:00:00,3,���k��,1.3,8.7,65.2,0,0.08,2,�k��,2.3,50,,
2018/5/6,13:00:00,1,�k�k��,0.5,7.6,76.2,0,0.04,3,���k��,2.7,24,,
2018/5/6,14:00:00,4,��,2,7,83.5,0,0.04,3,���k��,4.5,35,,
2018/5/6,15:00:00,3,���k��,1,6,89.2,1,0.03,5,���쓌,4.5,7,,
2018/5/6,16:00:00,4,��,2.3,5.9,91.4,1,0.05,4,��,3.3,52,,
2018/5/6,17:00:00,3,���k��,2.5,5.6,93.5,2.5,0.03,4,��,3.7,58,,
2018/5/6,18:00:00,3,���k��,3.2,5.3,94.5,2.5,0.01,3,���k��,4.3,53,,
2018/5/6,19:00:00,3,���k��,3.3,5.1,95.5,2.5,0,3,���k��,5.8,42,,
2018/5/6,20:00:00,3,���k��,3.2,5,96.1,3,0,3,���k��,6.5,4,,
2018/5/6,21:00:00,1,�k�k��,2.5,5.2,96.5,2.5,0,3,���k��,4.6,3,,
2018/5/6,22:00:00,15,�k�k��,1.9,5.3,96.4,2,0,15,�k�k��,3.5,49,,
2018/5/6,23:00:00,14,�k��,2.6,5.6,95.8,0.5,0,14,�k��,4.3,40,,
2018/5/6,0:00:00,14,�k��,2.8,5.6,94.7,0,0,14,�k��,4.8,32,,
2018/5/7,1:00:00,14,�k��,2.9,5.7,94,0,0,14,�k��,5.7,27,,
2018/5/7,2:00:00,13,���k��,1.7,5.4,92,0,0,14,�k��,5.7,7,,
2018/5/7,3:00:00,14,�k��,1.8,5.4,91.2,0,0,13,���k��,3.8,9,,
2018/5/7,4:00:00,14,�k��,1.7,5.4,89.5,0,0,14,�k��,4.1,34,,
2018/5/7,5:00:00,15,�k�k��,2.3,5.5,87,0,0.02,16,�k,4.8,46,,
2018/5/7,6:00:00,14,�k��,2.6,6.2,87.2,0,0.06,15,�k�k��,5.2,18,,
2018/5/7,7:00:00,15,�k�k��,3.6,8.3,81.5,0,0.25,13,���k��,6.2,52,,
2018/5/7,8:00:00,16,�k,3.7,9.9,67.5,0,0.61,16,�k,7.1,56,,
2018/5/7,9:00:00,16,�k,3.2,11,66.2,0,0.57,15,�k�k��,6.5,13,,
2018/5/7,10:00:00,15,�k�k��,3.2,10.8,65,0,0.4,14,�k��,6.4,43,,
2018/5/7,11:00:00,6,�쓌,2,9.4,75.9,0,0.43,14,�k��,5.1,5,,
2018/5/7,12:00:00,6,�쓌,2.9,9.2,68.7,0,0.69,6,�쓌,4.7,47,,
2018/5/7,13:00:00,6,�쓌,3.3,10.2,62.6,0,0.86,7,��쓌,4.9,56,,
2018/5/7,14:00:00,7,��쓌,2.6,9.3,65.9,0,0.58,7,��쓌,4.5,7,,
2018/5/7,15:00:00,7,��쓌,3.4,7.9,74.6,0,0.3,8,��,5.3,49,,
2018/5/7,16:00:00,8,��,2.7,7.7,76.1,0,0.27,8,��,4.8,10,,
2018/5/7,17:00:00,8,��,1.7,7.7,73.4,0,0.23,8,��,3.7,6,,
2018/5/7,18:00:00,6,�쓌,1.2,6.6,81.2,0,0.08,6,�쓌,2.6,36,,
2018/5/7,19:00:00,6,�쓌,1.1,6.2,85.6,0,0.01,4,��,2,39,,
2018/5/7,20:00:00,8,��,0.9,6.3,84.9,0,0,9,��쐼,3.1,45,,
2018/5/7,21:00:00,12,��,0.5,6,85.8,0,0,9,��쐼,1.7,14,,
2018/5/7,22:00:00,14,�k��,0.6,6.2,86.9,0,0,11,���쐼,10.6,0,,
2018/5/7,23:00:00,8,��,0.6,6,86.6,0,0,10,�쐼,5.1,13,,
2018/5/7,0:00:00,6,�쓌,0.8,6.2,84.4,0,0,6,�쓌,1.7,42,,
2018/5/8,1:00:00,5,���쓌,2.5,5.6,82.4,0,0,5,���쓌,3.7,56,,
2018/5/8,2:00:00,4,��,1.3,5.4,83.4,0,0,4,��,3.6,15,,
2018/5/8,3:00:00,14,�k��,0.4,5.3,85,0,0,4,��,2.3,1,,
2018/5/8,4:00:00,13,���k��,0.5,5.4,86,0,0,12,��,2,19,,
2018/5/8,5:00:00,16,�k,1.8,4.1,78.1,0,0.02,16,�k,4.3,13,,
2018/5/8,6:00:00,16,�k,0.9,4.8,78.4,0,0.08,1,�k�k��,3.2,11,,
2018/5/8,7:00:00,3,���k��,3.9,5.4,81.2,0,0.16,15,�k�k��,7.4,2,,
2018/5/8,8:00:00,3,���k��,4.1,5.6,76.7,0,0.32,4,��,6.4,44,,
2018/5/8,9:00:00,4,��,3.8,6.2,73,0,0.56,5,���쓌,6.6,33,,
2018/5/8,10:00:00,5,���쓌,3.9,7.3,71.1,0,0.65,4,��,6.7,50,,
2018/5/8,11:00:00,5,���쓌,4.7,7.1,64.4,0,1.02,4,��,7.4,24,,
2018/5/8,12:00:00,6,�쓌,4.2,7.6,60.8,0,1.05,5,���쓌,7.3,21,,
2018/5/8,13:00:00,5,���쓌,4.3,8,59.1,0,1.01,5,���쓌,7.4,27,,
2018/5/8,14:00:00,6,�쓌,3.3,8,56.7,0,0.9,6,�쓌,6.1,15,,
2018/5/8,15:00:00,8,��,2.5,8.1,58.6,0,0.71,6,�쓌,6.1,2,,
2018/5/8,16:00:00,8,��,2.5,8.3,56.2,0,0.57,8,��,4.8,19,,
2018/5/8,17:00:00,7,��쓌,2.5,8,54.2,0,0.36,7,��쓌,4.6,15,,
2018/5/8,18:00:00,7,��쓌,1.3,6.7,66.4,0,0.1,7,��쓌,3.9,6,,
2018/5/8,19:00:00,6,�쓌,2.3,5.1,82.5,0,0.01,6,�쓌,4.6,50,,
2018/5/8,20:00:00,6,�쓌,1.4,5.4,81.2,0,0,7,��쓌,3.6,1,,
2018/5/8,21:00:00,5,���쓌,3.1,5.1,82.1,0,0,5,���쓌,4.8,53,,
2018/5/8,22:00:00,6,�쓌,2.2,4.8,84.7,0,0,5,���쓌,4.5,4,,
2018/5/8,23:00:00,8,��,0.9,4.8,84.8,0,0,6,�쓌,3.9,1,,
2018/5/8,0:00:00,6,�쓌,0.3,4.9,84.8,0,0,7,��쓌,8.2,25,,
2018/5/9,1:00:00,6,�쓌,1.1,4.9,83.1,0,0,4,��,1.8,4,,
2018/5/9,2:00:00,4,��,2.6,4.3,84.5,0,0,4,��,3.7,51,,
2018/5/9,3:00:00,3,���k��,2,3.9,87.5,0,0,4,��,3.4,33,,
2018/5/9,4:00:00,5,���쓌,1.4,3.8,89.6,0,0,4,��,3.1,3,,
2018/5/9,5:00:00,4,��,2.7,3.6,92.6,0,0.01,4,��,3.7,51,,
2018/5/9,6:00:00,4,��,2.4,3.8,94.1,0,0.03,4,��,4.2,31,,
2018/5/9,7:00:00,4,��,2.7,3.9,94.5,0,0.06,4,��,4.8,28,,
2018/5/9,8:00:00,5,���쓌,3.3,3.9,93.3,0,0.11,4,��,5.2,35,,
2018/5/9,9:00:00,5,���쓌,3.2,3.9,93.7,0,0.11,4,��,5,13,,
2018/5/9,10:00:00,5,���쓌,3,4,91.3,0,0.18,4,��,5,12,,
2018/5/9,11:00:00,5,���쓌,3.5,4.5,90.2,0,0.21,4,��,5.4,49,,
2018/5/9,12:00:00,4,��,4.1,4.2,83.4,0,0.26,4,��,6,42,,
2018/5/9,13:00:00,5,���쓌,3.3,4.3,81.3,0,0.26,5,���쓌,5.7,34,,
2018/5/9,14:00:00,5,���쓌,3.2,4.9,78.2,0,0.3,6,�쓌,6.1,16,,
2018/5/9,15:00:00,6,�쓌,2.6,4.3,72.7,0,0.38,5,���쓌,5.6,20,,
2018/5/9,16:00:00,4,��,1.6,4.6,74.1,0,0.22,5,���쓌,4.4,27,,
2018/5/9,17:00:00,3,���k��,2,4.7,74.3,0,0.15,4,��,3.6,40,,
2018/5/9,18:00:00,3,���k��,1.1,4.1,76.6,0,0.07,3,���k��,2.9,2,,
2018/5/9,19:00:00,4,��,2.6,3.8,82,0,0.01,5,���쓌,3.9,31,,
2018/5/9,20:00:00,1,�k�k��,1.5,3.6,79.8,0,0,3,���k��,3.5,0,,
2018/5/9,21:00:00,15,�k�k��,1.1,2.4,82,0,0,16,�k,2.7,9,,
2018/5/9,22:00:00,14,�k��,1.6,2.4,86.9,0,0,13,���k��,2.1,59,,
2018/5/9,23:00:00,14,�k��,2.2,2.1,87.4,0,0,14,�k��,3.2,41,,
2018/5/9,0:00:00,14,�k��,1.9,1.6,88.7,0,0,14,�k��,2.9,27,,
2018/5/10,1:00:00,14,�k��,1.3,0.9,89.7,0,0,14,�k��,3,1,,
2018/5/10,2:00:00,14,�k��,1.5,0.2,90.1,0,0,14,�k��,2.7,20,,
2018/5/10,3:00:00,14,�k��,1.5,0.9,91.9,0,0,14,�k��,2.4,59,,
2018/5/10,4:00:00,13,���k��,1.3,1.7,94.6,0,0,14,�k��,2.5,27,,
2018/5/10,5:00:00,13,���k��,1,2.2,92.8,0,0.01,14,�k��,2.4,11,,
2018/5/10,6:00:00,14,�k��,1.5,3,90.4,0,0.04,14,�k��,2.5,57,,
2018/5/10,7:00:00,2,�k��,2.1,4.5,85.3,0,0.09,3,���k��,3,51,,
2018/5/10,8:00:00,2,�k��,1.4,5.2,75.3,0,0.17,3,���k��,3,5,,
2018/5/10,9:00:00,3,���k��,2.8,5.2,75.9,0,0.22,4,��,4.3,43,,
2018/5/10,10:00:00,2,�k��,2.3,7.3,69,0,0.44,3,���k��,4.3,54,,
2018/5/10,11:00:00,5,���쓌,3.3,7,56.3,0,0.84,4,��,5.6,45,,
2018/5/10,12:00:00,5,���쓌,3.8,7.8,68,0,0.94,6,�쓌,6.3,28,,
2018/5/10,13:00:00,5,���쓌,4.8,7,68,0,1.05,4,��,8.1,30,,
2018/5/10,14:00:00,6,�쓌,4.1,6.7,67.5,0,0.83,5,���쓌,6.9,39,,
2018/5/10,15:00:00,7,��쓌,3.7,6,66.6,0,0.61,9,��쐼,6.2,31,,
2018/5/10,16:00:00,8,��,2.1,5.8,70,0,0.26,8,��,5.5,1,,
2018/5/10,17:00:00,8,��,2.2,5.1,73.5,0,0.16,8,��,3.6,35,,
2018/5/10,18:00:00,8,��,1.8,5.1,79.5,0,0.07,7,��쓌,3.6,56,,
2018/5/10,19:00:00,7,��쓌,1.6,4.5,82,0,0.02,7,��쓌,3.8,4,,
2018/5/10,20:00:00,7,��쓌,1.4,4.5,86.3,0,0,7,��쓌,3.2,2,,
2018/5/10,21:00:00,7,��쓌,1.2,4.2,87.8,0,0,7,��쓌,3.1,25,,
2018/5/10,22:00:00,16,�É�,0.2,4.1,88.7,0,0,8,��,2.2,36,,
2018/5/10,23:00:00,13,���k��,0.6,3.9,88.6,0,0,10,�쐼,3.7,16,,
2018/5/10,0:00:00,12,��,0.6,3.6,88.9,0,0,12,��,2.9,21,,
2018/5/11,11:00:00,12,��,6.1,16.1,49.9,0,0.84,12,��,11.7,11,,
2018/5/11,12:00:00,12,��,7.9,16.7,48.7,0,1.05,12,��,13.1,30,,
2018/5/11,13:00:00,11,���쐼,8.9,17.7,48.3,0,0.97,11,���쐼,13.3,56,,
2018/5/11,14:00:00,11,���쐼,8.5,17.9,45.8,0,0.89,11,���쐼,15.2,34,,
2018/5/11,15:00:00,12,��,8.7,18.5,46.1,0,0.75,11,���쐼,16.2,1,,
2018/5/11,16:00:00,12,��,9.3,18.3,45.7,0,0.56,11,���쐼,15.9,25,,
2018/5/11,17:00:00,12,��,8.9,17.3,48.8,0,0.37,11,���쐼,16.3,53,,
2018/5/11,18:00:00,12,��,6.6,15.5,56.7,0,0.15,12,��,14.9,12,,
2018/5/11,19:00:00,10,�쐼,4.1,14.6,61.6,0,0.02,12,��,12,1,,
2018/5/11,20:00:00,11,���쐼,6.9,14.1,65.3,0,0,11,���쐼,10.6,39,,
2018/5/11,21:00:00,10,�쐼,2.8,13.4,66.6,0,0,11,���쐼,9.7,0,,
2018/5/11,22:00:00,10,�쐼,2.8,12.6,69.6,0,0,11,���쐼,6,39,,
2018/5/11,23:00:00,11,���쐼,5,13,68.9,0,0,11,���쐼,7.9,55,,
2018/5/11,0:00:00,4,��,0.8,9,72.4,0,0,11,���쐼,6.6,0,,
2018/5/12,1:00:00,11,���쐼,1.6,6.6,81.7,0,0,13,���k��,2.5,38,,
2018/5/12,2:00:00,12,��,2,4.7,85.7,0,0,13,���k��,2.7,26,,
2018/5/12,3:00:00,12,��,1,5.1,89.5,0,0,13,���k��,2.5,0,,
2018/5/12,4:00:00,13,���k��,2.6,4.7,92.2,0,0,12,��,4,46,,
2018/5/12,5:00:00,13,���k��,2.1,6.6,93.1,0,0.04,14,�k��,4.2,22,,
2018/5/12,6:00:00,13,���k��,2.5,11.1,80.7,0,0.21,13,���k��,4.1,36,,
2018/5/12,7:00:00,15,�k�k��,1.5,16.9,52.9,0,0.42,13,���k��,3.3,0,,
2018/5/12,8:00:00,11,���쐼,3.5,19.9,36.1,0,0.6,10,�쐼,5.1,52,,
2018/5/12,9:00:00,16,�k,3.5,21.9,36.7,0,0.75,1,�k�k��,6.1,59,,
2018/5/12,10:00:00,15,�k�k��,5.3,22.8,30.9,0,0.94,14,�k��,9.8,49,,
2018/5/12,11:00:00,15,�k�k��,5.6,23.5,30,0,1.03,16,�k,11.6,14,,
2018/5/12,12:00:00,13,���k��,5.2,24.1,32.4,0,1.06,15,�k�k��,10.7,6,,
2018/5/12,13:00:00,15,�k�k��,4.2,24.8,27.6,0,0.97,15,�k�k��,8.4,40,,
2018/5/12,14:00:00,7,��쓌,2,24,28.1,0,0.87,16,�k,8.1,11,,
2018/5/12,15:00:00,8,��,2.6,20.3,32,0,0.74,6,�쓌,8.6,4,,
2018/5/12,16:00:00,7,��쓌,2.6,20.7,33.8,0,0.5,8,��,6.5,36,,
2018/5/12,17:00:00,7,��쓌,1,20.6,37.5,0,0.32,7,��쓌,5.2,15,,
2018/5/12,18:00:00,3,���k��,2.6,12.3,62.7,0,0.13,3,���k��,7.1,27,,
2018/5/12,19:00:00,3,���k��,3.3,10.5,74.5,0,0.01,3,���k��,5.2,40,,
2018/5/12,20:00:00,3,���k��,2.1,9.2,77.2,0,0,2,�k��,3.5,1,,
2018/5/12,21:00:00,16,�É�,0.2,6.6,79.9,0,0,4,��,2,8,,
2018/5/12,22:00:00,13,���k��,1,5.3,82.9,0,0,14,�k��,2.3,5,,
2018/5/12,23:00:00,10,�쐼,1.1,5.4,88.6,0,0,13,���k��,2.6,43,,
2018/5/12,0:00:00,16,�É�,0,7.3,90.6,0,0,8,��,2.3,3,,
2018/5/13,1:00:00,13,���k��,1.1,7,91.6,0,0,16,�k,1.9,34,,
2018/5/13,2:00:00,13,���k��,1.4,6.3,89.2,0,0,12,��,2.8,23,,
2018/5/13,3:00:00,13,���k��,3.1,7.6,89.8,0,0,13,���k��,4.1,57,,
2018/5/13,4:00:00,12,��,1.7,7.7,89.5,0,0,13,���k��,3.7,30,,
2018/5/13,5:00:00,11,���쐼,1.4,8,89.7,0,0.02,12,��,2.4,9,,
2018/5/13,6:00:00,12,��,0.7,9.4,89.1,0,0.07,12,��,1.7,40,,
2018/5/13,7:00:00,10,�쐼,1,12.6,66,0,0.32,10,�쐼,2.8,45,,
2018/5/13,8:00:00,7,��쓌,0.8,13.6,65.6,0,0.31,8,��,3.2,22,,
2018/5/13,9:00:00,6,�쓌,1.6,11.9,67.9,0,0.3,8,��,3.4,37,,
2018/5/13,10:00:00,8,��,2.5,11.8,67.1,0,0.23,7,��쓌,3.5,52,,
2018/5/13,11:00:00,7,��쓌,3.1,10.3,70.8,0,0.2,7,��쓌,5,52,,
2018/5/13,12:00:00,7,��쓌,1.6,10.1,79.7,0,0.26,6,�쓌,4.2,16,,
2018/5/13,13:00:00,4,��,1.4,11.6,78.9,0,0.28,7,��쓌,3.4,0,,
2018/5/13,14:00:00,6,�쓌,1.1,11.4,72.3,0,0.23,6,�쓌,4.1,31,,
2018/5/13,15:00:00,5,���쓌,0.5,12.1,71.4,0,0.25,5,���쓌,3.2,25,,
2018/5/13,16:00:00,2,�k��,1.2,11.8,75.7,0,0.13,1,�k�k��,2.2,23,,
2018/5/13,17:00:00,4,��,1,10.2,80.4,0,0.05,6,�쓌,2.5,21,,
2018/5/13,18:00:00,4,��,2.9,9.2,85.5,0,0.03,4,��,3.8,57,,
2018/5/13,19:00:00,2,�k��,1.2,9,88.6,0,0.01,4,��,3.7,13,,
2018/5/13,20:00:00,2,�k��,1.6,9.2,88.2,0,0,3,���k��,3.7,29,,
2018/5/13,21:00:00,2,�k��,1,9.3,88.3,0,0,3,���k��,3.4,45,,
2018/5/13,22:00:00,1,�k�k��,1.9,9.3,90.9,0,0,1,�k�k��,3.1,45,,
2018/5/13,23:00:00,16,�k,1.6,9.6,92.7,0,0,16,�k,3.3,0,,
2018/5/13,0:00:00,1,�k�k��,0.9,9.5,93.7,0,0,2,�k��,2.6,28,,
2018/5/14,1:00:00,13,���k��,0.8,9.7,94.4,0,0,15,�k�k��,1.4,46,,
2018/5/14,2:00:00,13,���k��,0.7,9.8,94.8,0,0,12,��,1.3,13,,
2018/5/14,3:00:00,15,�k�k��,0.5,9.8,94.9,0,0,9,��쐼,2.8,35,,
2018/5/14,4:00:00,14,�k��,0.6,9.8,94.6,0,0,1,�k�k��,2.3,39,,
2018/5/14,5:00:00,15,�k�k��,0.9,10.2,94,0.5,0.01,16,�k,6.9,1,,
2018/5/14,6:00:00,13,���k��,1.2,11,93.7,0,0.07,14,�k��,2,53,,
2018/5/14,7:00:00,14,�k��,0.8,12.1,91,0,0.12,14,�k��,2.4,7,,
2018/5/14,8:00:00,15,�k�k��,1.6,13.7,83.5,0,0.22,15,�k�k��,2.8,59,,
2018/5/14,9:00:00,3,���k��,2.7,15.7,71.9,0,0.61,3,���k��,4.6,45,,
2018/5/14,10:00:00,5,���쓌,3,16.6,68.4,0,0.95,4,��,4.3,23,,
2018/5/14,11:00:00,5,���쓌,3.7,14.6,67.6,0,0.98,6,�쓌,5.3,50,,
2018/5/14,12:00:00,6,�쓌,3.3,15.1,65.8,0,1.04,6,�쓌,6,56,,
2018/5/14,13:00:00,7,��쓌,3.2,13.4,75.1,0,0.87,8,��,7.4,13,,
2018/5/14,14:00:00,7,��쓌,2,11.4,81.8,0,0.51,7,��쓌,6.2,11,,
2018/5/14,15:00:00,6,�쓌,1.6,12.1,81.5,0,0.4,7,��쓌,3.4,9,,
2018/5/14,16:00:00,4,��,1.5,12.7,82.5,0,0.27,4,��,2.8,46,,
2018/5/14,17:00:00,4,��,2.1,12,86.3,0,0.18,4,��,3.7,45,,
2018/5/14,18:00:00,5,���쓌,1,11.8,89.2,0,0.1,5,���쓌,3.1,10,,
2018/5/14,19:00:00,10,�쐼,1.3,11.4,92.2,0,0.02,6,�쓌,2.7,0,,
2018/5/14,20:00:00,14,�k��,0.8,11.1,93.9,0,0,12,��,3,33,,
2018/5/14,21:00:00,6,�쓌,1.1,10.5,93.2,0,0,5,���쓌,2,47,,
2018/5/14,22:00:00,11,���쐼,0.5,10.4,94.5,0,0,5,���쓌,1.9,6,,
2018/5/14,23:00:00,14,�k��,0.4,10.4,95.3,0,0,1,�k�k��,2.4,23,,
2018/5/14,0:00:00,12,��,1.4,8.9,94.1,0,0,14,�k��,2.6,36,,
2018/5/15,1:00:00,12,��,1.8,7,92.7,0,0,14,�k��,3.1,13,,
2018/5/15,2:00:00,13,���k��,2.3,5.8,93.5,0,0,13,���k��,3.8,53,,
2018/5/15,3:00:00,11,���쐼,0.8,5.2,94.8,0,0,1,�k�k��,4.3,27,,
2018/5/15,4:00:00,13,���k��,3.1,5.9,96.3,0,0,13,���k��,4.7,56,,
2018/5/15,5:00:00,13,���k��,2.1,6.8,97.5,0,0.06,13,���k��,4.3,3,,
2018/5/15,6:00:00,13,���k��,2.8,10.8,90.4,0,0.23,13,���k��,4.6,8,,
2018/5/15,7:00:00,14,�k��,0.9,14,67,0,0.44,13,���k��,3.7,0,,
2018/5/15,8:00:00,8,��,0.7,15.9,51.1,0,0.63,13,���k��,3.1,25,,
2018/5/15,9:00:00,7,��쓌,3.6,15.7,56.4,0,0.8,8,��,5.1,49,,
2018/5/15,10:00:00,7,��쓌,4.6,15.2,58.3,0,0.93,7,��쓌,7,44,,
2018/5/15,11:00:00,8,��,4.8,15.3,61.6,0,0.98,8,��,7.7,54,,
2018/5/15,12:00:00,7,��쓌,4.7,14.5,60.1,0,1.03,7,��쓌,10,33,,
2018/5/15,13:00:00,6,�쓌,2.6,14.3,61.6,0,0.98,7,��쓌,7.8,0,,
2018/5/15,14:00:00,3,���k��,3.6,15.9,65,0,0.88,2,�k��,5.3,52,,
2018/5/15,15:00:00,3,���k��,2.8,16.6,64.4,0,0.74,3,���k��,5,5,,
2018/5/15,16:00:00,4,��,2.7,15.5,67.7,0,0.56,4,��,5.6,29,,
2018/5/15,17:00:00,5,���쓌,1.1,15.6,64.8,0,0.36,4,��,3.6,26,,
2018/5/15,18:00:00,4,��,1.9,11.3,73.6,0,0.15,4,��,3.5,44,,
2018/5/15,19:00:00,3,���k��,1.5,9.1,83.7,0,0.02,4,��,3.9,3,,
2018/5/15,20:00:00,2,�k��,1.9,9.3,88,0,0,2,�k��,3.1,58,,
2018/5/15,21:00:00,3,���k��,3.2,9.3,87.4,0,0,3,���k��,4.9,52,,
2018/5/15,22:00:00,2,�k��,1.9,8.7,88.6,0,0,3,���k��,4.6,0,,
2018/5/15,23:00:00,1,�k�k��,1.9,9.1,89.2,0,0,1,�k�k��,4.4,46,,
2018/5/15,0:00:00,14,�k��,0.9,7.8,87.1,0,0,1,�k�k��,3.9,14,,
2018/5/16,1:00:00,13,���k��,0.3,6.7,88.1,0,0,14,�k��,2.4,13,,
2018/5/16,2:00:00,14,�k��,1.4,4,88.2,0,0,12,��,2.3,46,,
2018/5/16,3:00:00,14,�k��,0.6,4.7,92,0,0,13,���k��,2.5,23,,
2018/5/16,4:00:00,12,��,2.4,4.4,94.1,0,0,13,���k��,2.8,57,,
2018/5/16,5:00:00,14,�k��,0.5,5.6,95.6,0,0.04,13,���k��,2.9,20,,
2018/5/16,6:00:00,13,���k��,1.5,9,96.5,0,0.15,12,��,2.5,44,,
2018/5/16,7:00:00,4,��,0.6,12.7,67.3,0,0.37,14,�k��,1.8,34,,
2018/5/16,8:00:00,4,��,2.4,14.3,61.4,0,0.54,5,���쓌,3.8,53,,
2018/5/16,9:00:00,4,��,2.3,14.3,63.5,0,0.66,4,��,4.1,11,,
2018/5/16,10:00:00,5,���쓌,2.8,11.6,70.1,0,0.61,5,���쓌,6.5,48,,
2018/5/16,11:00:00,6,�쓌,2.5,11.9,72.5,0,0.57,4,��,4.5,6,,
2018/5/16,12:00:00,6,�쓌,1.6,11.4,71.6,0,0.5,7,��쓌,4.7,8,,
2018/5/16,13:00:00,5,���쓌,2.2,11.3,73.1,0,0.42,5,���쓌,3.2,52,,
2018/5/16,14:00:00,7,��쓌,1.4,11.9,71.1,0,0.43,6,�쓌,2.9,44,,
2018/5/16,15:00:00,6,�쓌,1.4,13.7,66.4,0,0.56,7,��쓌,3.2,8,,
2018/5/16,16:00:00,6,�쓌,2.2,12.8,64.2,0,0.53,5,���쓌,3.1,50,,
2018/5/16,17:00:00,5,���쓌,2.2,11.1,74.1,0,0.31,5,���쓌,3.3,29,,
2018/5/16,18:00:00,5,���쓌,1,10.2,78.7,0,0.14,6,�쓌,2.4,10,,
2018/5/16,19:00:00,3,���k��,1.1,9,85.4,0,0.02,5,���쓌,2.4,39,,
2018/5/16,20:00:00,2,�k��,1.2,8.3,89.2,0,0,1,�k�k��,2.2,20,,
2018/5/16,21:00:00,3,���k��,1,8.4,91.9,0,0,4,��,2.9,20,,
2018/5/16,22:00:00,1,�k�k��,0.8,7.3,91.8,0,0,1,�k�k��,2.8,28,,
2018/5/16,23:00:00,15,�k�k��,0.3,8.5,92.8,0,0,11,���쐼,4.1,28,,
2018/5/16,0:00:00,1,�k�k��,2.4,10.2,93.7,0,0,1,�k�k��,4.4,37,,
2018/5/17,1:00:00,2,�k��,1,10.2,91.6,0,0,1,�k�k��,3.9,5,,
2018/5/17,2:00:00,5,���쓌,0.9,11,92.8,0,0,4,��,3.3,39,,
2018/5/17,3:00:00,16,�k,1.3,11.2,91.2,0,0,6,�쓌,3,40,,
2018/5/17,4:00:00,11.4,���쐼,89.2,0,0,,,,,,,,
2018/5/17,5:00:00,3,���k��,1.5,11.2,90.4,0,0.01,6,�쓌,4.1,12,,
2018/5/17,6:00:00,5,���쓌,1.1,12.6,92.2,0,0.04,16,�k,3.3,45,,
2018/5/17,7:00:00,9,��쐼,3,20.5,89.1,0,0.22,10,�쐼,5.8,48,,
2018/5/17,8:00:00,9,��쐼,4.5,22.3,59.5,0,0.51,10,�쐼,10.3,35,,
2018/5/17,9:00:00,9,��쐼,4.6,22,63.9,0,0.66,9,��쐼,10.9,40,,
2018/5/17,10:00:00,7,��쓌,5.5,21.2,59,0,0.88,9,��쐼,10.3,3,,
2018/5/17,11:00:00,4,��,2.8,21.7,60.7,0,0.86,7,��쓌,9,4,,
2018/5/17,12:00:00,2,�k��,2.5,22.2,55.7,0,0.74,5,���쓌,3.7,10,,
2018/5/17,13:00:00,3,���k��,10.5,14.3,61.2,0,0.44,3,���k��,16.1,51,,
2018/5/17,14:00:00,3,���k��,4.8,12.5,76.6,0,0.39,3,���k��,12.4,4,,
2018/5/17,15:00:00,5,���쓌,1.9,13.6,66.4,0,0.55,4,��,7.3,5,,
2018/5/17,16:00:00,6,�쓌,1.4,14.9,63.2,0,0.58,7,��쓌,4.2,28,,
2018/5/17,17:00:00,7,��쓌,1.9,12.5,68.8,0,0.23,7,��쓌,4.9,9,,
2018/5/17,18:00:00,9,��쐼,1.2,11.4,68.7,0,0.11,8,��,2.9,5,,
2018/5/17,19:00:00,7,��쓌,1.9,10.8,74.8,0,0.02,8,��,4,45,,
2018/5/17,20:00:00,8,��,1.8,10.1,77.2,0,0,6,�쓌,4.7,20,,